TimeCDT,TemperatureF,Dew PointF,Humidity,Sea Level PressureIn,VisibilityMPH,Wind Direction,Wind SpeedMPH,Gust SpeedMPH,PrecipitationIn,Events,Conditions,WindDirDegrees,DateUTC
12:00 AM,5.0,1.4,85,30.79,0.1,North,2.3,-,N/A,Fog,Light Freezing Fog,360,2012-10-24 05:00:00
12:51 AM,-9999,-9999,N/A,-9999,0.5,North,2.3,-,N/A,Fog,Light Freezing Fog,360,2012-10-24 05:51:00
12:57 AM,-9999,-9999,N/A,-9999,0.5,North,2.3,-,N/A,Fog,Light Freezing Fog,360,2012-10-24 05:57:00
1:00 AM,0,-3,80,30.79,0,North,2.3,,,Fog,Partial Fog,0,2012-10-24 06:00:00
1:00 AM,1.4,-2.2,85,30.79,0.5,Calm,Calm,-,N/A,Fog,Light Freezing Fog,0,2012-10-24 06:00:00
1:28 AM,-9999,-9999,N/A,-9999,1.5,North,2.3,-,N/A,,Clear,360,2012-10-24 06:28:00
2:00 AM,-2.2,-5.8,85,30.79,2.0,North,2.3,-,N/A,,Partly Cloudy,360,2012-10-24 07:00:00
3:00 AM,-2.2,-5.8,85,30.79,6.0,North,2.3,-,N/A,,Partly Cloudy,360,2012-10-24 08:00:00
4:00 AM,-2.2,-5.8,85,30.79,4.0,North,2.3,-,N/A,,Partly Cloudy,10,2012-10-24 09:00:00
5:00 AM,-4.0,-7.6,85,30.78,6.0,NNE,3.5,-,N/A,,Partly Cloudy,20,2012-10-24 10:00:00
5:48 AM,-9999,-9999,N/A,-9999,10.0,NNE,3.5,-,N/A,Fog,Partly Cloudy,20,2012-10-24 10:48:00
6:00 AM,-4.0,-7.6,85,30.78,10.0,NNE,2.3,-,N/A,Fog,Partly Cloudy,20,2012-10-24 11:00:00
7:00 AM,-5.8,-9.4,84,30.76,15.0,North,3.5,-,N/A,,Partly Cloudy,10,2012-10-24 12:00:00
9:00 AM,-7.6,-11.2,84,30.75,10.0,NNE,3.5,-,N/A,Fog,Partly Cloudy,20,2012-10-24 14:00:00
10:00 AM,-5.8,-9.4,84,30.74,15.0,NNE,2.3,-,N/A,Fog,Mostly Cloudy,20,2012-10-24 15:00:00
11:00 AM,-5.8,-9.4,84,30.73,15.0,North,2.3,-,N/A,Fog,Scattered Clouds,10,2012-10-24 16:00:00
12:00 PM,-7.6,-11.2,84,30.72,15.0,North,2.3,-,N/A,Fog,Partly Cloudy,10,2012-10-24 17:00:00
1:00 PM,-6,-10,75,30.59,15,North,3.5,,,,Scattered Clouds,10,2012-10-24 18:00:00
1:00 PM,-5.8,-9.4,84,30.71,15.0,North,3.5,-,N/A,,Partly Cloudy,360,2012-10-24 18:00:00
2:00 PM,-4.0,-7.6,85,30.70,15.0,NNE,2.3,-,N/A,,Partly Cloudy,20,2012-10-24 19:00:00
3:00 PM,-4.0,-7.6,85,30.69,15.0,North,2.3,-,N/A,,Partly Cloudy,10,2012-10-24 20:00:00
4:00 PM,-4.0,-5.8,92,30.67,15.0,North,2.3,-,N/A,,Partly Cloudy,360,2012-10-24 21:00:00
5:00 PM,-4.0,-9.4,78,30.66,15.0,Calm,Calm,-,N/A,,Partly Cloudy,0,2012-10-24 22:00:00
6:00 PM,-5.8,-7.6,92,30.63,15.0,North,2.3,-,N/A,,Partly Cloudy,10,2012-10-24 23:00:00
7:00 PM,-2.2,-5.8,85,30.61,15.0,NNE,2.3,-,N/A,,Partly Cloudy,20,2012-10-25 00:00:00
8:00 PM,-2.2,-5.8,85,30.60,15.0,Calm,Calm,-,N/A,,Partly Cloudy,0,2012-10-25 01:00:00
10:00 PM,-0.4,-4.0,85,30.58,15.0,Calm,Calm,-,N/A,,Partly Cloudy,0,2012-10-25 03:00:00
11:00 PM,-0.4,-4.0,85,30.56,15.0,Calm,Calm,-,N/A,,Partly Cloudy,0,2012-10-25 04:00:00